Location: New York
(40.7140°N, 74.0060°W)
Time: 00:33:25
(UTC-04:00)

ISS - Visible Passes

Search period start: 21 April 2014 00:00
Search period end: 01 May 2014 00:00
Orbit: 414 x 419 km, 51.7° (Epoch: 20 April)

Date Brightness Start Highest point End Pass type
(mag) Time Alt. Az. Time Alt. Az. Time Alt. Az.
21 Apr -2.6 20:41:17 10° NW 20:44:32 46° NNE 20:46:36 20° E visible
21 Apr -0.5 22:18:30 10° W 22:19:30 15° W 22:19:30 15° W visible
22 Apr -2.3 21:29:32 10° WNW 21:32:38 35° SW 21:32:58 34° SSW visible
23 Apr -3.0 20:40:45 10° WNW 20:44:05 65° SW 20:46:26 18° SE visible
24 Apr -0.7 21:30:09 10° W 21:31:43 13° SW 21:32:49 11° SSW visible
25 Apr -1.2 20:40:29 10° W 20:43:10 22° SW 20:45:50 10° S visible
